Location: Lecco
(45.8566°N, 9.3977°E)
Time: 13:19:52
(UTC+02:00)

Explorer 11/Cluster Stage 4 - Pass Details

Date: 17 August 2020
Orbit: 467 x 1258 km, 28.8° (Epoch: 24 September)

Event Time Altitude Azimuth Distance (km) Brightness Sun altitude
Rises 19:44:59 0° 201° (SSW) 3,527 10.0 6.2°
Reaches altitude 10° 19:50:31 10° 162° (SSE) 2,831 9.2 5.2°
Maximum altitude 19:51:32 10° 154° (SSE) 2,846 9.1 5.1°
Drops below altitude 10° 19:52:35 10° 145° (SE) 2,911 9.1 4.9°
Sets 19:58:51 0° 109° (ESE) 4,068 9.5 3.8°
